[[{"header":{"parameterUnit":"m.s-1","parameterCategory":2,"la1":30.2992,"la2":30.254,"lo1":-89.0895,"lo2":-89.0443,"dy":0.0025,"dx":0.0025,"nx":19,"ny":19,"refTime":"2026-04-23T09:00:00:Z","depth":"0","parameterNumber":2,"parameterNumberName":"U-component_of_CURRENTS"},"data":[0,0,0,-0.2044,-0.2045,-0.2092,-0.2092,-0.2098,-0.2098,0,0,0,0,0,0,0,0,0,0,0,-0.2019,-0.202,-0.2044,-0.2045,-0.2092,-0.2092,-0.2098,-0.2098,0,0,0,0,0,0,0,0,0,0,0,-0.2019,-0.202,-0.202,-0.2046,-0.2092,-0.2092,-0.2098,-0.2074,0,0,0,0,0,0,0,0,0,0,-0.2034,-0.2014,-0.202,-0.202,-0.2046,-0.2092,-0.2092,-0.2073,-0.2075,-0.2064,0,-0.2075,0,-0.2093,-0.2098,-0.2098,0,0,0,-0.2036,-0.2012,-0.2037,-0.202,-0.2046,-0.2092,-0.2068,-0.2074,-0.2077,-0.2066,-0.2075,-0.2076,-0.2093,-0.2098,-0.2098,-0.2126,-0.2126,0,0,-0.2033,-0.2015,-0.2035,-0.2039,-0.2062,-0.2067,-0.207,-0.2076,-0.2072,-0.2075,-0.2076,-0.2093,-0.2098,-0.2098,-0.2126,-0.2126,0,0,0,-0.2032,-0.2013,-0.2038,-0.2038,-0.2055,-0.2068,-0.2072,-0.2071,-0.2083,-0.2077,-0.2093,-0.2098,-0.2098,-0.2125,-0.2126,-0.2126,0,0,0,-0.203,-0.2014,-0.2037,-0.2024,-0.2055,-0.207,-0.2066,-0.2082,-0.2084,-0.2093,-0.2098,-0.2098,-0.2125,-0.2125,-0.2125,-0.2107,0,0,0,-0.2017,-0.2012,-0.2021,-0.2023,-0.2051,-0.207,-0.2082,-0.2083,-0.2095,-0.2098,-0.2098,-0.2125,-0.2125,-0.2125,-0.2107,-0.2074,0,0,0,-0.1991,-0.2012,-0.202,-0.2052,-0.2051,-0.2104,-0.2082,-0.2114,-0.2121,-0.2098,-0.2125,-0.2126,-0.2124,-0.2107,-0.2074,-0.1925,-0.1912,0,0,-0.2008,-0.2013,-0.2036,-0.2046,-0.2094,-0.2096,-0.2129,-0.2128,-0.2125,-0.2116,-0.2117,-0.2126,-0.2107,-0.2074,-0.1968,-0.1952,0,0,0,-0.2036,-0.2043,-0.2064,-0.209,-0.213,-0.2137,-0.2152,-0.2148,-0.2144,-0.2135,-0.214,-0.2129,-0.2107,-0.2019,-0.2008,-0.1955,-0.2129,-0.2129,-0.2129,-0.2006,-0.2043,-0.2071,-0.211,-0.2139,-0.2168,-0.2167,-0.216,-0.2167,-0.2167,-0.2141,-0.2131,-0.2039,-0.2028,-0.1978,-0.2164,-0.2164,-0.2164,-0.2164,-0.2006,-0.2009,-0.2055,-0.2091,-0.2117,-0.2139,-0.2158,-0.216,-0.2139,-0.2155,-0.2134,-0.2039,-0.2015,-0.1966,-0.2165,-0.2164,-0.2164,-0.2164,-0.2164,-0.1958,-0.1962,-0.1996,-0.2033,-0.2062,-0.2105,-0.21,-0.2125,-0.2122,-0.2111,-0.1997,-0.1995,-0.1937,-0.21,-0.21,-0.21,-0.21,-0.21,-0.2099,-0.1876,-0.1914,-0.1915,-0.1971,-0.1986,-0.2017,-0.2061,-0.2047,-0.1995,-0.197,-0.1968,-0.1918,-0.211,-0.2096,-0.2096,-0.2097,-0.2097,-0.2098,-0.2098,-0.1785,-0.1808,-0.1807,-0.1821,-0.1864,-0.1841,-0.1925,-0.185,-0.1842,-0.1772,-0.172,-0.1883,-0.1857,-0.1865,-0.1845,-0.178,-0.178,-0.178,-0.178,-0.17,-0.1722,-0.1687,-0.1686,-0.1702,-0.1744,-0.1636,-0.1608,-0.1555,-0.1502,-0.1565,-0.1551,-0.1566,-0.1525,-0.1541,-0.1516,-0.1369,-0.1368,-0.1368,-0.1617,-0.1632,-0.1567,-0.1593,-0.1613,-0.1603,-0.1461,-0.1351,-0.1301,-0.1354,-0.1525,-0.1542,-0.1532,-0.156,-0.1507,-0.1533,-0.1496,0,0]},{"header":{"parameterUnit":"m.s-1","parameterCategory":2,"la1":30.2992,"la2":30.254,"lo1":-89.0895,"lo2":-89.0443,"dy":0.0025,"dx":0.0025,"nx":19,"ny":19,"refTime":"2026-04-23T09:00:00:Z","depth":"0","parameterNumber":3,"parameterNumberName":"V-component_of_CURRENTS"},"data":[0,0,0,-0.0394,-0.0393,-0.0322,-0.0322,-0.02,-0.0199,0,0,0,0,0,0,0,0,0,0,0,-0.0417,-0.0417,-0.0394,-0.0393,-0.0322,-0.0322,-0.02,-0.0199,0,0,0,0,0,0,0,0,0,0,0,-0.0417,-0.0417,-0.0416,-0.0393,-0.0322,-0.0322,-0.02,-0.0257,0,0,0,0,0,0,0,0,0,0,-0.0328,-0.0361,-0.0417,-0.0416,-0.0392,-0.0323,-0.0322,-0.026,-0.0254,-0.0228,0,-0.0227,0,-0.0217,-0.0191,-0.0191,0,0,0,-0.0376,-0.0367,-0.035,-0.0416,-0.0392,-0.0323,-0.0349,-0.0257,-0.0249,-0.0219,-0.0225,-0.0221,-0.0215,-0.0191,-0.019,-0.0099,-0.0099,0,0,-0.038,-0.0397,-0.0355,-0.0346,-0.0386,-0.0352,-0.0347,-0.0252,-0.0248,-0.0225,-0.0218,-0.0213,-0.019,-0.0189,-0.0099,-0.0099,0,0,0,-0.0402,-0.04,-0.0385,-0.035,-0.0344,-0.035,-0.0345,-0.0252,-0.0248,-0.0217,-0.0211,-0.0189,-0.0188,-0.01,-0.0099,-0.0159,0,0,0,-0.0404,-0.0414,-0.0387,-0.0395,-0.0347,-0.0302,-0.0347,-0.0254,-0.0244,-0.0212,-0.0189,-0.0187,-0.01,-0.0099,-0.0158,-0.0187,0,0,0,-0.0418,-0.0415,-0.0411,-0.0397,-0.0374,-0.0304,-0.0293,-0.0252,-0.0241,-0.0191,-0.0186,-0.01,-0.01,-0.0157,-0.0184,-0.0134,0,0,0,-0.043,-0.045,-0.0412,-0.0429,-0.0375,-0.0349,-0.0294,-0.0264,-0.0227,-0.0189,-0.01,-0.0099,-0.0156,-0.0183,-0.0134,-0.0044,-0.0038,0,0,-0.0468,-0.0455,-0.0466,-0.0431,-0.0433,-0.0357,-0.0333,-0.0263,-0.0207,-0.0126,-0.0124,-0.0158,-0.0184,-0.0134,-0.0021,-0.0016,0,0,0,-0.0487,-0.0496,-0.0489,-0.0478,-0.044,-0.0387,-0.0315,-0.0266,-0.019,-0.0186,-0.0133,-0.0147,-0.0114,-0.0058,-0.0054,0.011,-0.0098,-0.0098,-0.0098,-0.0551,-0.0534,-0.055,-0.0519,-0.0489,-0.0402,-0.0348,-0.0261,-0.0214,-0.0183,-0.0177,-0.0157,-0.0099,-0.0095,0.0072,-0.0154,-0.0154,-0.0154,-0.0154,-0.0618,-0.0631,-0.0593,-0.0605,-0.0535,-0.0497,-0.037,-0.0318,-0.0213,-0.0195,-0.0159,-0.0102,-0.0094,0.0083,-0.0158,-0.0157,-0.0157,-0.0156,-0.0156,-0.0668,-0.0673,-0.0674,-0.0675,-0.0637,-0.0552,-0.0475,-0.0383,-0.0268,-0.0238,-0.0112,-0.011,0.0035,-0.0201,-0.0201,-0.0201,-0.0201,-0.0201,-0.0201,-0.0721,-0.0721,-0.0753,-0.0742,-0.0734,-0.0681,-0.0532,-0.0434,-0.0255,-0.0157,-0.0155,0.0076,-0.017,-0.0181,-0.02,-0.02,-0.02,-0.02,-0.02,-0.0785,-0.0785,-0.0838,-0.0849,-0.0823,-0.0742,-0.061,-0.034,-0.0219,-0.0101,0.0174,-0.0081,-0.0039,-0.004,-0.0046,-0.0028,-0.0028,-0.0028,-0.0028,-0.0825,-0.083,-0.0898,-0.0921,-0.0901,-0.0771,-0.0511,-0.0215,0.0136,0.0318,0.0336,0.0374,0.036,0.0427,0.0415,0.042,0.0556,0.0557,0.0557,-0.0861,-0.0882,-0.093,-0.0954,-0.0931,-0.0768,-0.0445,0.0042,0.0494,0.0594,0.0547,0.0522,0.0587,0.0552,0.0662,0.0633,0.0641,0,0]}],[{"header":{"parameterUnit":"m.s-1","parameterCategory":2,"la1":30.2992,"la2":30.254,"lo1":-89.0895,"lo2":-89.0443,"dy":0.0025,"dx":0.0025,"nx":19,"ny":19,"refTime":"2026-04-23T09:00:00:Z","depth":"2","parameterNumber":2,"parameterNumberName":"U-component_of_CURRENTS"},"data":[0,0,0,-0.188,-0.1881,-0.1926,-0.1926,-0.1929,-0.1929,0,0,0,0,0,0,0,0,0,0,0,-0.1858,-0.1859,-0.188,-0.1881,-0.1926,-0.1926,-0.1929,-0.1929,0,0,0,0,0,0,0,0,0,0,0,-0.1858,-0.1858,-0.1859,-0.1882,-0.1926,-0.1926,-0.1929,-0.1907,0,0,0,0,0,0,0,0,0,0,-0.187,-0.1853,-0.1858,-0.1859,-0.1882,-0.1926,-0.1926,-0.1907,-0.1909,-0.1896,0,-0.1907,0,-0.1924,-0.1929,-0.1929,0,0,0,-0.1873,-0.1852,-0.1873,-0.1859,-0.1883,-0.1926,-0.1904,-0.1908,-0.191,-0.1898,-0.1907,-0.1908,-0.1924,-0.1929,-0.1929,-0.1951,-0.1951,0,0,-0.1871,-0.1855,-0.1872,-0.1875,-0.1898,-0.1902,-0.1905,-0.191,-0.1906,-0.1907,-0.1908,-0.1924,-0.1929,-0.1929,-0.1951,-0.1951,0,0,0,-0.1869,-0.1853,-0.1876,-0.1874,-0.189,-0.1904,-0.1907,-0.1906,-0.1917,-0.1908,-0.1924,-0.1929,-0.1929,-0.1951,-0.1951,-0.1958,0,0,0,-0.1867,-0.1853,-0.1875,-0.1864,-0.189,-0.1905,-0.1903,-0.1916,-0.1918,-0.1924,-0.1929,-0.1929,-0.195,-0.1951,-0.1957,-0.1942,0,0,0,-0.1856,-0.1852,-0.1861,-0.1863,-0.1889,-0.1905,-0.1916,-0.1917,-0.1927,-0.1929,-0.1929,-0.195,-0.1951,-0.1957,-0.1942,-0.1911,0,0,0,-0.1833,-0.1851,-0.186,-0.1887,-0.1888,-0.1935,-0.1916,-0.1946,-0.1953,-0.1929,-0.195,-0.1951,-0.1956,-0.1942,-0.1911,-0.1762,-0.1749,0,0,-0.1846,-0.1852,-0.1872,-0.1882,-0.1924,-0.1928,-0.1958,-0.1959,-0.1955,-0.1943,-0.1944,-0.1958,-0.1942,-0.1911,-0.18,-0.1785,0,0,0,-0.1871,-0.1877,-0.1895,-0.1919,-0.1955,-0.1964,-0.1978,-0.1975,-0.1973,-0.1963,-0.1969,-0.1959,-0.1938,-0.185,-0.1839,-0.1954,-0.1954,-0.1954,-0.1954,-0.1844,-0.1877,-0.19,-0.1936,-0.1962,-0.1991,-0.1992,-0.1987,-0.1993,-0.1995,-0.1974,-0.1966,-0.1874,-0.1864,-0.1994,-0.1994,-0.1994,-0.1994,-0.1994,-0.1842,-0.1843,-0.1887,-0.1919,-0.1946,-0.1968,-0.1987,-0.1991,-0.1974,-0.1988,-0.1968,-0.1874,-0.1851,-0.1995,-0.1995,-0.1995,-0.1995,-0.1995,-0.1995,-0.1798,-0.18,-0.1833,-0.1869,-0.1899,-0.1942,-0.1939,-0.1965,-0.1963,-0.1955,-0.184,-0.1837,-0.1942,-0.1946,-0.1946,-0.1946,-0.1946,-0.1946,-0.1946,-0.1722,-0.1758,-0.176,-0.1813,-0.183,-0.1863,-0.1907,-0.1894,-0.1844,-0.1819,-0.1818,-0.1949,-0.1951,-0.1939,-0.1943,-0.1943,-0.1944,-0.1944,-0.1944,-0.1634,-0.1659,-0.1658,-0.1673,-0.1715,-0.1686,-0.1774,-0.1701,-0.1695,-0.1626,-0.1728,-0.1734,-0.1705,-0.1713,-0.1695,-0.1635,-0.1635,-0.1635,-0.1635,-0.1554,-0.1575,-0.1544,-0.1543,-0.1557,-0.1591,-0.1463,-0.1409,-0.1425,-0.1402,-0.1412,-0.1397,-0.1414,-0.137,-0.1386,-0.1361,-0.1215,-0.1215,-0.1214,-0.1474,-0.1489,-0.1429,-0.1453,-0.147,-0.1446,-0.1265,-0.1064,-0.1025,-0.1202,-0.1382,-0.1599,-0.1605,-0.1621,-0.1578,-0.1593,-0.1564,0,0]},{"header":{"parameterUnit":"m.s-1","parameterCategory":2,"la1":30.2992,"la2":30.254,"lo1":-89.0895,"lo2":-89.0443,"dy":0.0025,"dx":0.0025,"nx":19,"ny":19,"refTime":"2026-04-23T09:00:00:Z","depth":"2","parameterNumber":3,"parameterNumberName":"V-component_of_CURRENTS"},"data":[0,0,0,-0.0415,-0.0414,-0.035,-0.0349,-0.0234,-0.0233,0,0,0,0,0,0,0,0,0,0,0,-0.0436,-0.0435,-0.0415,-0.0414,-0.035,-0.0349,-0.0234,-0.0233,0,0,0,0,0,0,0,0,0,0,0,-0.0436,-0.0435,-0.0435,-0.0414,-0.035,-0.0349,-0.0234,-0.0287,0,0,0,0,0,0,0,0,0,0,-0.0352,-0.0383,-0.0436,-0.0435,-0.0414,-0.035,-0.0349,-0.029,-0.0284,-0.0259,0,-0.0259,0,-0.025,-0.0226,-0.0226,0,0,0,-0.0398,-0.0388,-0.0373,-0.0435,-0.0413,-0.035,-0.0374,-0.0287,-0.028,-0.0251,-0.0257,-0.0253,-0.0248,-0.0225,-0.0225,-0.0136,-0.0136,0,0,-0.0401,-0.0417,-0.0378,-0.0369,-0.0409,-0.0376,-0.0373,-0.0283,-0.0279,-0.0257,-0.025,-0.0246,-0.0225,-0.0224,-0.0136,-0.0136,0,0,0,-0.0423,-0.0419,-0.0407,-0.0374,-0.0369,-0.0375,-0.037,-0.0282,-0.0279,-0.0249,-0.0245,-0.0224,-0.0223,-0.0136,-0.0136,-0.0196,0,0,0,-0.0424,-0.0433,-0.0409,-0.0416,-0.0371,-0.033,-0.0372,-0.0285,-0.0275,-0.0246,-0.0224,-0.0222,-0.0137,-0.0136,-0.0195,-0.0224,0,0,0,-0.0436,-0.0434,-0.0431,-0.0417,-0.0397,-0.0331,-0.0322,-0.0283,-0.0273,-0.0225,-0.0221,-0.0137,-0.0136,-0.0194,-0.0221,-0.0176,0,0,0,-0.0447,-0.0468,-0.0432,-0.0449,-0.0398,-0.0375,-0.0323,-0.0294,-0.026,-0.0223,-0.0137,-0.0136,-0.0193,-0.022,-0.0176,-0.01,-0.0095,0,0,-0.0485,-0.0472,-0.0483,-0.045,-0.0454,-0.0381,-0.0359,-0.0293,-0.0239,-0.0161,-0.0159,-0.0195,-0.0221,-0.0176,-0.0074,-0.007,0,0,0,-0.0503,-0.0512,-0.0506,-0.0497,-0.0461,-0.0412,-0.0343,-0.0296,-0.0223,-0.0219,-0.0169,-0.0183,-0.0152,-0.0105,-0.0102,-0.0134,-0.0134,-0.0134,-0.0134,-0.0567,-0.0551,-0.0567,-0.0538,-0.051,-0.0426,-0.0375,-0.0291,-0.0246,-0.0216,-0.0213,-0.0195,-0.0145,-0.0142,-0.0187,-0.0188,-0.0188,-0.0188,-0.0188,-0.0634,-0.0648,-0.0611,-0.0624,-0.0558,-0.0522,-0.0399,-0.0348,-0.0248,-0.0229,-0.0195,-0.0148,-0.0142,-0.0192,-0.0192,-0.0191,-0.0191,-0.019,-0.019,-0.0684,-0.069,-0.0692,-0.0695,-0.0659,-0.0577,-0.0505,-0.0415,-0.0303,-0.0276,-0.0162,-0.016,-0.0221,-0.0242,-0.0242,-0.0242,-0.0241,-0.0241,-0.0241,-0.0739,-0.0739,-0.0772,-0.0763,-0.0757,-0.0709,-0.0564,-0.0471,-0.0303,-0.0209,-0.0207,-0.0211,-0.0209,-0.0221,-0.024,-0.0241,-0.0241,-0.0241,-0.0241,-0.0804,-0.0804,-0.0859,-0.0871,-0.0851,-0.0784,-0.0652,-0.0398,-0.0282,-0.0171,-0.0139,-0.0142,-0.0102,-0.0103,-0.011,-0.0099,-0.0099,-0.0099,-0.0099,-0.0846,-0.0851,-0.0921,-0.0947,-0.0933,-0.082,-0.0612,-0.0357,-0.014,-0.0055,-0.0057,-0.0051,-0.0056,-0.0014,-0.0017,-0.0022,0.0012,0.0012,0.0012,-0.0883,-0.0905,-0.0955,-0.0981,-0.0965,-0.0831,-0.0598,-0.0281,-0.0026,0.0011,-0.0092,-0.0081,-0.0077,-0.0084,-0.0021,-0.0025,-0.0035,0,0]}],[{"header":{"parameterUnit":"m.s-1","parameterCategory":2,"la1":30.2992,"la2":30.254,"lo1":-89.0895,"lo2":-89.0443,"dy":0.0025,"dx":0.0025,"nx":19,"ny":19,"refTime":"2026-04-23T09:00:00:Z","depth":"4","parameterNumber":2,"parameterNumberName":"U-component_of_CURRENTS"},"data":[0,0,0,-0.1324,-0.1325,-0.1414,-0.1414,-0.1444,-0.1444,0,0,0,0,0,0,0,0,0,0,0,-0.1297,-0.1298,-0.1323,-0.1326,-0.1414,-0.1414,-0.1444,-0.1444,0,0,0,0,0,0,0,0,0,0,0,-0.1297,-0.1298,-0.1299,-0.1326,-0.1414,-0.1414,-0.1444,-0.1398,0,0,0,0,0,0,0,0,0,0,-0.1323,-0.1312,-0.1297,-0.1299,-0.1327,-0.1414,-0.1414,-0.1397,-0.1401,-0.1381,0,-0.1403,0,-0.1421,-0.1444,-0.1444,0,0,0,-0.1325,-0.1309,-0.133,-0.1299,-0.1327,-0.1414,-0.1374,-0.14,-0.1404,-0.1386,-0.1403,-0.1405,-0.1421,-0.1444,-0.1444,-0.1461,-0.1461,0,0,-0.1321,-0.1312,-0.1327,-0.1333,-0.136,-0.1371,-0.1377,-0.1403,-0.1411,-0.1404,-0.1406,-0.1422,-0.1444,-0.1444,-0.1461,-0.1461,0,0,0,-0.1307,-0.1308,-0.1331,-0.1332,-0.1353,-0.1374,-0.138,-0.141,-0.1418,-0.1407,-0.1422,-0.1444,-0.1444,-0.146,-0.1461,-0.1503,0,0,0,-0.1304,-0.13,-0.1329,-0.1324,-0.1353,-0.1394,-0.1386,-0.1416,-0.142,-0.1422,-0.1444,-0.1444,-0.146,-0.1461,-0.1501,-0.1499,0,0,0,-0.1291,-0.1299,-0.1312,-0.1324,-0.1362,-0.1395,-0.1405,-0.1418,-0.1429,-0.1444,-0.1444,-0.146,-0.1461,-0.15,-0.1497,-0.148,0,0,0,-0.1275,-0.1294,-0.1312,-0.1343,-0.1361,-0.1411,-0.1405,-0.1448,-0.1467,-0.1444,-0.146,-0.1461,-0.15,-0.1496,-0.1479,-0.1285,0,0,0,-0.1285,-0.1296,-0.1313,-0.1331,-0.1376,-0.1398,-0.1442,-0.1467,-0.146,-0.1445,-0.1446,-0.1502,-0.1497,-0.1479,-0.131,0,0,0,0,-0.1307,-0.1319,-0.1337,-0.1372,-0.1409,-0.1445,-0.1476,-0.1481,-0.1498,-0.1473,-0.1498,-0.1493,-0.1481,-0.1366,-0.1463,-0.1463,-0.1463,-0.1462,-0.1462,-0.1293,-0.1322,-0.1352,-0.1393,-0.143,-0.1481,-0.1504,-0.1512,-0.1515,-0.1528,-0.1525,-0.1536,-0.1418,-0.1534,-0.1534,-0.1534,-0.1534,-0.1534,-0.1534,-0.129,-0.1293,-0.1354,-0.1396,-0.1446,-0.149,-0.1527,-0.1543,-0.1547,-0.1551,-0.1538,-0.1417,-0.1538,-0.1538,-0.1537,-0.1537,-0.1536,-0.1536,-0.1536,-0.125,-0.1253,-0.1307,-0.1368,-0.1434,-0.1497,-0.1512,-0.1557,-0.1566,-0.1572,-0.1425,-0.1545,-0.1541,-0.1569,-0.1569,-0.1569,-0.1569,-0.1569,-0.1569,-0.1169,-0.122,-0.1251,-0.1334,-0.1377,-0.1435,-0.1507,-0.1497,-0.153,-0.1429,-0.1577,-0.1547,-0.1546,-0.1541,-0.1568,-0.1568,-0.1568,-0.1568,-0.1569,-0.1079,-0.1123,-0.1149,-0.1194,-0.1277,-0.1307,-0.1414,-0.1359,-0.1328,-0.126,-0.1337,-0.1349,-0.1303,-0.1307,-0.1293,-0.1248,-0.1245,-0.1243,0,-0.1003,-0.1031,-0.1048,-0.1079,-0.11,-0.1209,-0.113,-0.1149,-0.1163,-0.1125,-0.1324,-0.1414,-0.142,-0.1373,-0.1373,-0.1357,0,0,0,-0.0931,-0.0953,-0.093,-0.0985,-0.1007,-0.1012,-0.1096,-0.1041,-0.1182,-0.1087,-0.1181,-0.1197,-0.1432,-0.1565,-0.1522,-0.1521,-0.1511,0,0]},{"header":{"parameterUnit":"m.s-1","parameterCategory":2,"la1":30.2992,"la2":30.254,"lo1":-89.0895,"lo2":-89.0443,"dy":0.0025,"dx":0.0025,"nx":19,"ny":19,"refTime":"2026-04-23T09:00:00:Z","depth":"4","parameterNumber":3,"parameterNumberName":"V-component_of_CURRENTS"},"data":[0,0,0,-0.0298,-0.0298,-0.027,-0.027,-0.0187,-0.0187,0,0,0,0,0,0,0,0,0,0,0,-0.0306,-0.0306,-0.0298,-0.0298,-0.027,-0.027,-0.0187,-0.0187,0,0,0,0,0,0,0,0,0,0,0,-0.0306,-0.0306,-0.0306,-0.0298,-0.027,-0.027,-0.0188,-0.0217,0,0,0,0,0,0,0,0,0,0,-0.0248,-0.027,-0.0306,-0.0306,-0.0298,-0.027,-0.027,-0.0218,-0.0215,-0.0191,0,-0.0197,0,-0.0196,-0.0181,-0.0181,0,0,0,-0.0283,-0.0273,-0.0266,-0.0306,-0.0297,-0.027,-0.0278,-0.0217,-0.0212,-0.0186,-0.0196,-0.0194,-0.0195,-0.0181,-0.018,-0.0106,-0.0105,0,0,-0.0284,-0.0295,-0.027,-0.0264,-0.0303,-0.0279,-0.0278,-0.0214,-0.0214,-0.0196,-0.0192,-0.0193,-0.018,-0.018,-0.0106,-0.0106,0,0,0,-0.0299,-0.0296,-0.0292,-0.0267,-0.0269,-0.0279,-0.0277,-0.0216,-0.0216,-0.0191,-0.0192,-0.018,-0.0179,-0.0106,-0.0106,-0.0165,0,0,0,-0.0299,-0.0306,-0.0293,-0.0298,-0.0271,-0.025,-0.028,-0.022,-0.0213,-0.0193,-0.018,-0.0178,-0.0106,-0.0106,-0.0164,-0.0193,0,0,0,-0.0305,-0.0306,-0.0307,-0.0299,-0.0294,-0.0251,-0.0246,-0.0219,-0.0214,-0.0181,-0.0178,-0.0106,-0.0106,-0.0163,-0.0191,-0.016,0,0,0,-0.0309,-0.033,-0.0308,-0.0327,-0.0295,-0.0283,-0.0247,-0.0231,-0.0207,-0.0179,-0.0106,-0.0106,-0.0163,-0.0189,-0.0159,-0.017,0,0,0,-0.034,-0.0334,-0.0345,-0.0325,-0.0337,-0.0285,-0.0274,-0.023,-0.0185,-0.0122,-0.012,-0.0164,-0.0191,-0.016,-0.0136,0,0,0,0,-0.0357,-0.0369,-0.0367,-0.0369,-0.0345,-0.0317,-0.0268,-0.0232,-0.0177,-0.0171,-0.0136,-0.015,-0.0129,-0.0132,-0.0103,-0.0103,-0.0103,-0.0103,-0.0103,-0.041,-0.0401,-0.0421,-0.0407,-0.0391,-0.0333,-0.0298,-0.0233,-0.0195,-0.0172,-0.0178,-0.0168,-0.0173,-0.015,-0.0151,-0.0151,-0.0151,-0.0151,-0.0151,-0.0467,-0.0482,-0.0465,-0.0486,-0.0444,-0.0424,-0.0328,-0.0288,-0.0212,-0.0192,-0.0168,-0.017,-0.0157,-0.0156,-0.0155,-0.0154,-0.0154,-0.0153,-0.0153,-0.0508,-0.0514,-0.0529,-0.0552,-0.054,-0.0484,-0.0435,-0.0361,-0.0268,-0.0249,-0.0204,-0.0185,-0.0202,-0.0224,-0.0224,-0.0224,-0.0224,-0.0224,-0.0224,-0.0543,-0.0555,-0.06,-0.0615,-0.0627,-0.0603,-0.0498,-0.0428,-0.0329,-0.0261,-0.0254,-0.0191,-0.0188,-0.0203,-0.0224,-0.0224,-0.0224,-0.0224,-0.0224,-0.0588,-0.06,-0.0665,-0.0694,-0.0712,-0.068,-0.0596,-0.0429,-0.0349,-0.0265,-0.0242,-0.0241,-0.0211,-0.0207,-0.0222,-0.0249,-0.0249,-0.0249,0,-0.0615,-0.0626,-0.0712,-0.0759,-0.0767,-0.0717,-0.0599,-0.0491,-0.0354,-0.0361,-0.0356,-0.0339,-0.0335,-0.0309,-0.0306,-0.0328,0,0,0,-0.0641,-0.0667,-0.0727,-0.0778,-0.0786,-0.0653,-0.0562,-0.0497,-0.0391,-0.0287,-0.0254,-0.0253,-0.0266,-0.0224,-0.0173,-0.017,-0.019,0,0]}]]